User: anonymous   Login
Location: Standeford and Andreas Observatories
(44.1397°N, 93.9969°W)
Time: 10:28:18
(UTC-05:00)
Language:

Cosmos 1500 Rocket - Orbit

View from above orbital plane
View from above orbital plane
View from above satellite
View from above satellite

Ground track
Ground track

The orbit data is extracted from the following two-line orbital elements,

1 14373U 83099B   16274.57424722  .00000168  00000-0  17451-4 0  9997
2 14373  82.5392 127.1692 0020413   7.8780  49.6587 14.83634573782388
Epoch (UTC): 30 September 2016 13:46:54
Eccentricity: 0.0020413
inclination: 82.5392°
perigee height: 603 km
apogee height: 632 km
right ascension of ascending node: 127.1692°
argument of perigee: 7.8780°
revolutions per day: 14.83634573
mean anomaly at epoch: 49.6587°
orbit number at epoch: 78238

The dashed part of the orbit path shows where the satellite is in the earth's shadow,  

DLR